Location: Unspecified
(48.7670°N, 0.0000°E)
Time: 14:25:21
(UTC+00:00)

S-56A Canister/Altair - Pass Details

Date: 27 October 2019
Orbit: 634 x 2498 km, 38.9° (Epoch: 16 November)

Event Time Altitude Azimuth Distance (km) Brightness Sun altitude
Exits shadow 04:31:47 27° 225° (SW) 2,041 9.2 -21.4°
Maximum altitude 04:34:14 33° 192° (SSW) 1,985 9.4 -21.0°
Drops below altitude 10° 04:42:26 10° 134° (SE) 3,907 11.7 -19.6°
Sets 04:46:42 0° 126° (SE) 5,218 12.6 -18.9°
